User: anonymous   Login
Location: Pitton
(51.0667°N, 1.7000°W)
Time: 04:20:14
(UTC+00:00)
Language:

Cosmos 1766 - Orbit

View from above orbital plane
View from above orbital plane
View from above satellite
View from above satellite

Ground track
Ground track

The orbit data is extracted from the following two-line orbital elements,

1 16881U 86055A   19324.16983495  .00001110  00000-0  64761-4 0  9993
2 16881  82.5093 236.4137 0014966 294.0166  65.9497 15.10893512815181
Epoch (UTC): 20 November 2019 04:04:33
Eccentricity: 0.0014966
inclination: 82.5093°
perigee height: 523 km
apogee height: 544 km
right ascension of ascending node: 236.4137°
argument of perigee: 294.0166°
revolutions per day: 15.10893512
mean anomaly at epoch: 65.9497°
orbit number at epoch: 81518

The dashed part of the orbit path shows where the satellite is in the earth's shadow,  

DLR